Pat Luke — WDH2891 — position and weather

sailwx.info

Track history (hours):
 
Tides and Currents Weather Stations Pressure Air Temp Water Temp Dewpoint Dewpoint Depression Visibility Wind Speed Wind Dir Waves Ship Positions

Pat Luke

Owner: Al Cenac LLC, Houma, LA. More information available from US FCC via Universal Licensing System and Coast Guard Vessel Documentation Center.

Last reported at 2018-Feb-20 13:30 UTC. Time now 2018-Feb-20 13:58 UTC.
Position N 29°34' W 090°42'.

Length 10 m; draft 1 m.

Type: Tug. MMSI: 367602270.

Date/timePositionNaut miles runAvg speedWind from/ knotsBaromVisibWave heightAir tempDewpointWater temp
2018-Feb-20 13:30N 29°34' W 090°42'0 0.0
2018-Feb-20 13:00N 29°34' W 090°42'1 1.1
2018-Feb-20 12:30N 29°34' W 090°42'0 0.0
2018-Feb-20 12:00N 29°34' W 090°42'0 0.0
2018-Feb-20 11:30N 29°34' W 090°42'0 0.0
2018-Feb-20 11:00N 29°34' W 090°42'0 0.0
2018-Feb-20 10:30N 29°34' W 090°42'0 0.0
2018-Feb-20 10:00N 29°34' W 090°42'0 0.0
2018-Feb-20 09:30N 29°34' W 090°42'0 0.0
2018-Feb-20 09:00N 29°34' W 090°42'0 0.0
2018-Feb-20 08:30N 29°34' W 090°42'0 0.0
2018-Feb-20 08:00N 29°34' W 090°42'0 0.0
2018-Feb-20 07:30N 29°34' W 090°42'0 0.0
2018-Feb-20 07:00N 29°34' W 090°42'2 5.0
2018-Feb-20 06:30N 29°31' W 090°42'3 6.8
2018-Feb-20 06:00N 29°28' W 090°43'7 1.2
2018-Feb-20 00:16N 29°21' W 090°44'1 4.8
2018-Feb-19 23:59N 29°23' W 090°44'2 5.0
2018-Feb-19 23:30N 29°25' W 090°43'3 5.7
2018-Feb-19 23:00N 29°28' W 090°43'3 5.3
2018-Feb-19 22:30N 29°30' W 090°43'3 5.1
2018-Feb-19 22:00N 29°33' W 090°42'1 2.0
2018-Feb-19 21:30N 29°34' W 090°42'0 0.1
2018-Feb-19 20:58N 29°34' W 090°42'0 0.0
2018-Feb-19 20:30N 29°34' W 090°42'1 1.0
2018-Feb-19 20:00N 29°33' W 090°43'2 4.4
2018-Feb-19 19:30N 29°33' W 090°45'3 6.2
2018-Feb-19 19:00N 29°32' W 090°48'4 0.1
2018-Feb-17 22:42N 29°33' W 090°53'1 6.6
2018-Feb-17 22:29N 29°32' W 090°52'3 6.3
2018-Feb-17 22:00N 29°32' W 090°48'3 5.5
2018-Feb-17 21:30N 29°33' W 090°45'2 5.0
2018-Feb-17 21:00N 29°34' W 090°43'1 1.4
2018-Feb-17 20:30N 29°34' W 090°43'1 1.5
2018-Feb-17 20:00N 29°34' W 090°43'0 0.0
2018-Feb-17 19:30N 29°34' W 090°43'0 0.0
2018-Feb-17 19:00N 29°34' W 090°43'0 0.0
2018-Feb-17 18:30N 29°34' W 090°43'0 0.0
2018-Feb-17 18:00N 29°34' W 090°43'0 0.0
2018-Feb-17 17:30N 29°34' W 090°43'0 0.0
2018-Feb-17 17:00N 29°34' W 090°43'0 0.0
2018-Feb-17 16:30N 29°34' W 090°43'0 0.0
2018-Feb-17 16:00N 29°34' W 090°43'0 0.0
2018-Feb-17 15:30N 29°34' W 090°43'0 0.0
2018-Feb-17 15:00N 29°34' W 090°43'0 0.0
2018-Feb-17 14:30N 29°34' W 090°43'0 0.0
2018-Feb-17 14:00N 29°34' W 090°43'0 0.0
2018-Feb-17 13:30N 29°34' W 090°43'0 0.0
2018-Feb-17 13:00N 29°34' W 090°43'0 0.0
2018-Feb-17 12:30N 29°34' W 090°43'0 0.0
2018-Feb-17 12:00N 29°34' W 090°43'0 0.0
2018-Feb-17 11:30N 29°34' W 090°43'0 0.0
2018-Feb-17 11:00N 29°34' W 090°43'0 0.0
2018-Feb-17 10:30N 29°34' W 090°43'0 0.0
2018-Feb-17 10:00N 29°34' W 090°43'0 0.0
2018-Feb-17 09:30N 29°34' W 090°43'0 0.0
2018-Feb-17 09:00N 29°34' W 090°43'0 0.0
2018-Feb-17 08:30N 29°34' W 090°43'0 0.0
2018-Feb-17 08:00N 29°34' W 090°43'0 0.0
2018-Feb-17 07:30N 29°34' W 090°43'0 0.0
2018-Feb-17 07:00N 29°34' W 090°43'0 0.0
2018-Feb-17 06:29N 29°34' W 090°43'0 0.0
2018-Feb-17 06:00N 29°34' W 090°43'0 0.0
2018-Feb-17 05:30N 29°34' W 090°43'0 0.0
2018-Feb-17 05:00N 29°34' W 090°43'0 0.0
2018-Feb-17 04:30N 29°34' W 090°43'0 0.0
2018-Feb-17 04:00N 29°34' W 090°43'0 0.0
2018-Feb-17 03:30N 29°34' W 090°43'0 0.0
2018-Feb-17 03:00N 29°34' W 090°43'0 0.0
2018-Feb-17 02:30N 29°34' W 090°43'0 0.0
2018-Feb-17 02:00N 29°34' W 090°43'0 0.0
2018-Feb-17 01:30N 29°34' W 090°43'0 0.0
2018-Feb-17 01:00N 29°34' W 090°43'0 0.0
2018-Feb-17 00:30N 29°34' W 090°43'0 0.0
2018-Feb-17 00:00N 29°34' W 090°43'0 0.0
2018-Feb-16 23:30N 29°34' W 090°43'0 0.0
2018-Feb-16 23:00N 29°34' W 090°43'0 0.0
2018-Feb-16 22:30N 29°34' W 090°43'0 0.0
2018-Feb-16 22:00N 29°34' W 090°43'0 0.0
2018-Feb-16 21:30N 29°34' W 090°43'0 0.0
2018-Feb-16 21:00N 29°34' W 090°43'0 0.0
2018-Feb-16 20:30N 29°34' W 090°43'0 0.0
2018-Feb-16 20:00N 29°34' W 090°43'0 0.0
2018-Feb-16 19:30N 29°34' W 090°43'0 0.0
2018-Feb-16 19:00N 29°34' W 090°43'0 0.0
2018-Feb-16 18:30N 29°34' W 090°43'0 0.0
2018-Feb-16 18:00N 29°34' W 090°43'0 0.0
2018-Feb-16 17:30N 29°34' W 090°43'0 0.0
2018-Feb-16 17:00N 29°34' W 090°43'1 1.2
2018-Feb-16 16:30N 29°34' W 090°43'2 4.7
2018-Feb-16 16:00N 29°36' W 090°43'2 4.4
2018-Feb-16 15:30N 29°36' W 090°40'0 0.4
2018-Feb-16 14:44N 29°36' W 090°40'0 0.0
2018-Feb-16 14:29N 29°36' W 090°40'1 2.3
2018-Feb-16 14:00N 29°35' W 090°39'3 5.3
2018-Feb-16 13:30N 29°35' W 090°36'3 6.2
2018-Feb-16 13:00N 29°34' W 090°32'  
Track history (hours):
 
Tides and Currents Weather Stations Pressure Air Temp Water Temp Dewpoint Dewpoint Depression Visibility Wind Speed Wind Dir Waves Ship Positions

Pat Luke

Owner: Al Cenac LLC, Houma, LA. More information available from US FCC via Universal Licensing System and Coast Guard Vessel Documentation Center.

Last reported at 2018-Feb-20 13:30 UTC. Time now 2018-Feb-20 13:58 UTC.
Position N 29°34' W 090°42'.

Length 10 m; draft 1 m.

Type: Tug. MMSI: 367602270.

Date/timePositionNaut miles runAvg speedWind from/ knotsBaromVisibWave heightAir tempDewpointWater temp
2018-Feb-20 13:30N 29°34' W 090°42'0 0.0
2018-Feb-20 13:00N 29°34' W 090°42'1 1.1
2018-Feb-20 12:30N 29°34' W 090°42'0 0.0
2018-Feb-20 12:00N 29°34' W 090°42'0 0.0
2018-Feb-20 11:30N 29°34' W 090°42'0 0.0
2018-Feb-20 11:00N 29°34' W 090°42'0 0.0
2018-Feb-20 10:30N 29°34' W 090°42'0 0.0
2018-Feb-20 10:00N 29°34' W 090°42'0 0.0
2018-Feb-20 09:30N 29°34' W 090°42'0 0.0
2018-Feb-20 09:00N 29°34' W 090°42'0 0.0
2018-Feb-20 08:30N 29°34' W 090°42'0 0.0
2018-Feb-20 08:00N 29°34' W 090°42'0 0.0
2018-Feb-20 07:30N 29°34' W 090°42'0 0.0
2018-Feb-20 07:00N 29°34' W 090°42'2 5.0
2018-Feb-20 06:30N 29°31' W 090°42'3 6.8
2018-Feb-20 06:00N 29°28' W 090°43'7 1.2
2018-Feb-20 00:16N 29°21' W 090°44'1 4.8
2018-Feb-19 23:59N 29°23' W 090°44'2 5.0
2018-Feb-19 23:30N 29°25' W 090°43'3 5.7
2018-Feb-19 23:00N 29°28' W 090°43'3 5.3
2018-Feb-19 22:30N 29°30' W 090°43'3 5.1
2018-Feb-19 22:00N 29°33' W 090°42'1 2.0
2018-Feb-19 21:30N 29°34' W 090°42'0 0.1
2018-Feb-19 20:58N 29°34' W 090°42'0 0.0
2018-Feb-19 20:30N 29°34' W 090°42'1 1.0
2018-Feb-19 20:00N 29°33' W 090°43'2 4.4
2018-Feb-19 19:30N 29°33' W 090°45'3 6.2
2018-Feb-19 19:00N 29°32' W 090°48'4 0.1
2018-Feb-17 22:42N 29°33' W 090°53'1 6.6
2018-Feb-17 22:29N 29°32' W 090°52'3 6.3
2018-Feb-17 22:00N 29°32' W 090°48'3 5.5
2018-Feb-17 21:30N 29°33' W 090°45'2 5.0
2018-Feb-17 21:00N 29°34' W 090°43'1 1.4
2018-Feb-17 20:30N 29°34' W 090°43'1 1.5
2018-Feb-17 20:00N 29°34' W 090°43'0 0.0
2018-Feb-17 19:30N 29°34' W 090°43'0 0.0
2018-Feb-17 19:00N 29°34' W 090°43'0 0.0
2018-Feb-17 18:30N 29°34' W 090°43'0 0.0
2018-Feb-17 18:00N 29°34' W 090°43'0 0.0
2018-Feb-17 17:30N 29°34' W 090°43'0 0.0
2018-Feb-17 17:00N 29°34' W 090°43'0 0.0
2018-Feb-17 16:30N 29°34' W 090°43'0 0.0
2018-Feb-17 16:00N 29°34' W 090°43'0 0.0
2018-Feb-17 15:30N 29°34' W 090°43'0 0.0
2018-Feb-17 15:00N 29°34' W 090°43'0 0.0
2018-Feb-17 14:30N 29°34' W 090°43'0 0.0
2018-Feb-17 14:00N 29°34' W 090°43'0 0.0
2018-Feb-17 13:30N 29°34' W 090°43'0 0.0
2018-Feb-17 13:00N 29°34' W 090°43'0 0.0
2018-Feb-17 12:30N 29°34' W 090°43'0 0.0
2018-Feb-17 12:00N 29°34' W 090°43'0 0.0
2018-Feb-17 11:30N 29°34' W 090°43'0 0.0
2018-Feb-17 11:00N 29°34' W 090°43'0 0.0
2018-Feb-17 10:30N 29°34' W 090°43'0 0.0
2018-Feb-17 10:00N 29°34' W 090°43'0 0.0
2018-Feb-17 09:30N 29°34' W 090°43'0 0.0
2018-Feb-17 09:00N 29°34' W 090°43'0 0.0
2018-Feb-17 08:30N 29°34' W 090°43'0 0.0
2018-Feb-17 08:00N 29°34' W 090°43'0 0.0
2018-Feb-17 07:30N 29°34' W 090°43'0 0.0
2018-Feb-17 07:00N 29°34' W 090°43'0 0.0
2018-Feb-17 06:29N 29°34' W 090°43'0 0.0
2018-Feb-17 06:00N 29°34' W 090°43'0 0.0
2018-Feb-17 05:30N 29°34' W 090°43'0 0.0
2018-Feb-17 05:00N 29°34' W 090°43'0 0.0
2018-Feb-17 04:30N 29°34' W 090°43'0 0.0
2018-Feb-17 04:00N 29°34' W 090°43'0 0.0
2018-Feb-17 03:30N 29°34' W 090°43'0 0.0
2018-Feb-17 03:00N 29°34' W 090°43'0 0.0
2018-Feb-17 02:30N 29°34' W 090°43'0 0.0
2018-Feb-17 02:00N 29°34' W 090°43'0 0.0
2018-Feb-17 01:30N 29°34' W 090°43'0 0.0
2018-Feb-17 01:00N 29°34' W 090°43'0 0.0
2018-Feb-17 00:30N 29°34' W 090°43'0 0.0
2018-Feb-17 00:00N 29°34' W 090°43'0 0.0
2018-Feb-16 23:30N 29°34' W 090°43'0 0.0
2018-Feb-16 23:00N 29°34' W 090°43'0 0.0
2018-Feb-16 22:30N 29°34' W 090°43'0 0.0
2018-Feb-16 22:00N 29°34' W 090°43'0 0.0
2018-Feb-16 21:30N 29°34' W 090°43'0 0.0
2018-Feb-16 21:00N 29°34' W 090°43'0 0.0
2018-Feb-16 20:30N 29°34' W 090°43'0 0.0
2018-Feb-16 20:00N 29°34' W 090°43'0 0.0
2018-Feb-16 19:30N 29°34' W 090°43'0 0.0
2018-Feb-16 19:00N 29°34' W 090°43'0 0.0
2018-Feb-16 18:30N 29°34' W 090°43'0 0.0
2018-Feb-16 18:00N 29°34' W 090°43'0 0.0
2018-Feb-16 17:30N 29°34' W 090°43'0 0.0
2018-Feb-16 17:00N 29°34' W 090°43'1 1.2
2018-Feb-16 16:30N 29°34' W 090°43'2 4.7
2018-Feb-16 16:00N 29°36' W 090°43'2 4.4
2018-Feb-16 15:30N 29°36' W 090°40'0 0.4
2018-Feb-16 14:44N 29°36' W 090°40'0 0.0
2018-Feb-16 14:29N 29°36' W 090°40'1 2.3
2018-Feb-16 14:00N 29°35' W 090°39'3 5.3
2018-Feb-16 13:30N 29°35' W 090°36'3 6.2
2018-Feb-16 13:00N 29°34' W 090°32'  

Dump ship's entire track history